Location: Tucson
(32.2217°N, 110.9265°W)
Time: 02:15:43
(UTC-07:00)

Vanguard 2 - All Passes

Search period start: 21 October 2021 00:00
Search period end: 31 October 2021 00:00
Orbit: 553 x 2936 km, 32.9° (Epoch: 20 October)

Date Brightness Start Highest point End Pass type
(mag) Time Alt. Az. Time Alt. Az. Time Alt. Az.
21 Oct - 01:42:29 10° SW 01:55:13 53° SSE 02:02:53 10° E visible
21 Oct - 03:54:59 10° W 04:04:56 88° S 04:10:45 10° E visible
21 Oct - 06:07:10 10° W 06:13:51 87° S 06:18:17 10° E visible
21 Oct - 08:17:50 10° W 08:21:44 27° SSW 08:25:07 10° SSE daylight
21 Oct - 21:47:51 10° SSE 21:50:59 11° SE 21:53:58 10° SE visible
21 Oct - 23:49:23 10° SSW 00:02:25 33° SSE 00:11:33 10° E night (unlit)
22 Oct - 02:00:06 10° WSW 02:13:04 65° SSE 02:20:43 10° E visible
22 Oct - 04:13:06 10° W 04:22:46 86° N 04:28:28 10° E visible
22 Oct - 06:25:09 10° W 06:31:36 73° SSW 06:35:57 10° ESE daylight
22 Oct - 08:36:17 10° WSW 08:39:12 17° SSW 08:41:52 10° S daylight
22 Oct - 21:59:48 10° S 22:08:59 17° SE 22:16:51 10° ESE visible
23 Oct - 00:06:07 10° SW 00:20:20 42° SSE 00:29:49 10° E night (unlit)
23 Oct - 02:17:57 10° WSW 02:30:56 76° SSE 02:38:29 10° E visible
23 Oct - 04:31:15 10° W 04:40:38 85° N 04:46:11 10° E visible
23 Oct - 06:43:09 10° W 06:49:16 56° SSW 06:53:30 10° ESE daylight
23 Oct - 22:14:46 10° S 22:26:55 24° SE 22:36:42 10° E visible
24 Oct - 00:23:16 10° SW 00:38:14 52° SSE 00:47:51 10° E night (unlit)
24 Oct - 02:35:58 10° WSW 02:48:49 85° SSE 02:56:13 10° E visible
24 Oct - 04:49:22 10° W 04:58:29 88° N 05:03:54 10° E visible
24 Oct - 07:01:12 10° W 07:06:49 39° SSW 07:10:51 10° SE daylight
24 Oct - 22:30:42 10° SSW 22:44:48 32° SSE 22:55:38 10° E visible
25 Oct - 00:40:44 10° SW 00:56:07 63° SSE 01:05:45 10° E night (unlit)
25 Oct - 02:54:07 10° W 03:06:43 89° N 03:13:57 10° E visible
25 Oct - 05:07:27 10° W 05:16:17 83° SSW 05:21:36 10° ESE visible
25 Oct - 07:19:25 10° W 07:24:16 27° SW 07:27:56 10° SSE daylight
25 Oct - 20:42:48 10° SSE 20:51:06 15° SE 20:58:46 10° ESE visible
25 Oct - 22:47:13 10° SSW 23:02:39 41° SSE 23:14:04 10° E visible
26 Oct - 00:58:28 10° WSW 01:14:01 73° SSE 01:23:34 10° E visible
26 Oct - 03:12:20 10° W 03:24:38 86° N 03:31:41 10° E visible
26 Oct - 05:25:32 10° W 05:34:02 70° SSW 05:39:13 10° ESE visible
26 Oct - 07:38:03 10° W 07:41:36 17° SW 07:44:32 10° S daylight
26 Oct - 20:57:05 10° S 21:08:55 22° SE 21:19:26 10° E visible
26 Oct - 23:04:09 10° SW 23:20:30 50° SSE 23:32:14 10° E visible
27 Oct - 01:16:25 10° WSW 01:31:57 82° SSE 01:41:20 10° E visible
27 Oct - 03:30:33 10° W 03:42:33 87° N 03:49:26 10° E visible
27 Oct - 05:43:36 10° W 05:51:40 55° SSW 05:56:42 10° SE visible
27 Oct - 21:12:39 10° SSW 21:26:39 29° SE 21:38:47 10° E visible
27 Oct - 23:21:27 10° SW 23:38:23 60° SSE 23:50:13 10° E visible
28 Oct - 01:34:32 10° WSW 01:49:54 88° S 01:59:07 10° E visible
28 Oct - 03:48:45 10° W 04:00:27 89° SSW 04:07:10 10° E visible
28 Oct - 06:01:46 10° W 06:09:10 40° SSW 06:13:59 10° SE visible
28 Oct - 19:27:58 10° SSE 19:33:05 12° SE 19:38:09 10° ESE visible
28 Oct - 21:28:55 10° SSW 21:44:24 38° SE 21:57:29 10° E visible
28 Oct - 23:39:01 10° WSW 23:56:17 70° SSE 00:08:06 10° E visible
29 Oct - 01:52:45 10° W 02:07:53 88° N 02:16:53 10° E visible
29 Oct - 04:06:55 10° W 04:18:17 80° SSW 04:24:50 10° ESE visible
29 Oct - 06:20:06 10° W 06:26:32 28° SW 06:30:59 10° SSE daylight
29 Oct - 19:40:35 10° S 19:50:44 18° SE 20:00:42 10° ESE visible
29 Oct - 21:45:37 10° SW 22:02:10 47° SSE 22:15:51 10° E visible
29 Oct - 23:56:50 10° WSW 00:14:15 78° SSE 00:25:57 10° E visible
30 Oct - 02:11:00 10° W 02:25:53 87° N 02:34:40 10° E visible
30 Oct - 04:25:03 10° WNW 04:36:02 68° SSW 04:42:25 10° ESE visible
30 Oct - 06:38:49 10° W 06:43:45 19° SW 06:47:31 10° S daylight
30 Oct - 19:55:36 10° S 20:08:20 25° SE 20:20:46 10° E visible
30 Oct - 22:02:43 10° SW 22:19:58 56° SSE 22:33:58 10° E visible
